period_start,C,m1,H,J0,J1,J2,J3,J4,J5,JA,JB,JC,JD,JJ,JK,JN,#
2016-03-15 00:04:29,0.14,7.44,0.00,12.94,16.94,21.47,15.22,50.53,1021.01,2068.99,1554.98,1789.99,2035.71,600.09,619.76,49.32,0000 0000 0000 0000 000000
2016-03-15 00:09:30,0.15,7.45,0.00,12.94,16.94,21.49,15.31,50.52,1021.01,2068.99,1553.81,1789.14,2034.80,600.07,619.76,49.37,0000 0000 0000 0000 000000
2016-03-15 00:14:32,0.15,7.46,0.00,12.95,16.94,21.45,15.25,50.50,1021.01,2068.99,1552.65,1788.38,2033.89,599.97,619.49,49.42,0000 0000 0000 0000 000000
2016-03-15 00:19:33,0.12,7.46,0.00,12.95,16.96,21.48,15.26,50.57,1021.01,2068.99,1551.60,1787.68,2032.99,600.08,619.79,49.48,0000 0000 0000 0000 000000
2016-03-15 00:24:34,0.15,7.47,0.00,12.97,16.97,21.52,15.27,50.60,1021.01,2068.99,1550.42,1786.80,2032.05,599.99,619.58,49.53,0000 0000 0000 0000 000000
2016-03-15 00:29:35,0.14,7.48,0.00,12.98,16.97,21.50,15.20,50.36,1021.01,2068.99,1549.17,1785.90,2031.10,600.20,619.70,49.58,0000 0000 0000 0000 000000
2016-03-15 00:34:37,0.18,7.49,0.00,13.01,16.97,21.53,15.24,50.71,1021.01,2068.99,1547.77,1784.93,2030.05,599.80,619.30,49.63,0000 0000 0000 0000 000000
2016-03-15 00:39:38,0.15,7.50,0.00,13.02,16.99,21.51,15.30,50.78,1021.00,2068.99,1546.54,1784.05,2029.03,599.97,619.41,49.68,0000 0000 0000 0000 000000
2016-03-15 00:44:39,0.15,7.51,0.00,13.04,17.00,21.54,15.28,50.74,1021.00,2068.99,1545.36,1783.13,2028.00,600.38,619.82,49.73,0000 0000 0000 0000 000000
2016-03-15 00:49:40,0.16,7.52,0.00,13.08,17.03,21.56,15.18,50.60,1020.99,2068.98,1544.05,1782.15,2026.96,599.63,619.10,49.78,0000 0000 0000 0000 000000
2016-03-15 00:54:41,0.19,7.52,0.00,13.09,17.05,21.62,15.18,50.73,1020.96,2068.97,1542.71,1781.25,2025.89,599.78,619.02,49.83,0000 0000 0000 0000 000000
2016-03-15 00:59:42,0.16,7.53,0.00,13.12,17.08,21.59,15.21,50.90,1020.96,2068.98,1541.54,1780.33,2024.86,599.86,619.09,49.88,0000 0000 0000 0000 000000
2016-03-15 01:04:43,0.16,7.54,0.00,13.14,17.10,21.65,15.24,51.00,1020.99,2068.94,1540.46,1779.42,2023.78,600.17,619.42,49.93,0000 0000 0000 0000 000000
2016-03-15 01:09:45,0.12,7.55,0.00,13.17,17.13,21.63,15.18,50.93,1020.97,2068.80,1539.23,1778.50,2022.70,600.04,619.22,49.98,0000 0000 0000 0000 000000
2016-03-15 01:14:46,0.12,7.55,0.00,13.19,17.16,21.69,15.31,50.92,1020.97,2068.44,1537.96,1777.55,2021.66,599.84,618.93,50.03,0000 0000 0000 0000 000000
2016-03-15 01:19:47,0.14,7.56,0.00,13.23,17.20,21.72,15.27,51.02,1020.99,2068.16,1536.81,1776.66,2020.68,600.11,619.15,50.08,0000 0000 0000 0000 000000
2016-03-15 01:24:48,0.15,7.56,0.00,13.26,17.23,21.73,15.19,51.06,1020.98,2068.03,1535.65,1775.78,2019.55,599.96,619.00,50.13,0000 0000 0000 0000 000000
2016-03-15 01:29:49,0.18,7.57,0.00,13.29,17.27,21.80,15.23,51.07,1020.96,2068.00,1534.55,1774.67,2018.37,600.23,619.15,50.18,0000 0000 0000 0000 000000
2016-03-15 01:34:50,0.18,7.58,0.00,13.33,17.31,21.80,15.23,50.92,1020.91,2068.00,1533.11,1773.59,2017.16,600.14,618.89,50.23,0000 0000 0000 0000 000000
2016-03-15 01:39:52,0.19,7.59,0.00,13.37,17.34,21.86,15.27,50.98,1020.80,2068.00,1531.69,1772.53,2016.01,600.19,618.81,50.28,0000 0000 0000 0000 000000
2016-03-15 01:44:53,0.17,7.60,0.00,13.39,17.37,21.92,15.23,51.15,1020.78,2067.98,1530.48,1771.58,2014.90,600.03,618.57,50.33,0000 0000 0000 0000 000000
2016-03-15 01:49:55,0.15,7.61,0.00,13.43,17.41,21.89,15.21,51.07,1020.71,2067.93,1529.18,1770.65,2013.76,600.11,618.50,50.39,0000 0000 0000 0000 000000
2016-03-15 01:54:56,0.12,7.62,0.00,13.46,17.44,21.95,15.26,51.07,1020.62,2067.59,1527.93,1769.63,2012.65,599.73,618.04,50.44,0000 0000 0000 0000 000000
2016-03-15 01:59:57,0.16,7.62,0.00,13.50,17.48,22.02,15.18,51.20,1020.62,2067.24,1526.51,1768.55,2011.45,599.97,618.18,50.49,0000 0000 0000 0000 000000
2016-03-15 02:04:58,0.15,7.63,0.00,13.54,17.52,22.04,15.18,51.10,1020.56,2067.07,1525.10,1767.52,2010.16,600.16,618.11,50.54,0000 0000 0000 0000 000000
2016-03-15 02:10:00,0.17,7.64,0.00,13.58,17.56,22.11,15.16,51.10,1020.55,2067.01,1523.92,1766.45,2008.96,599.84,617.96,50.59,0000 0000 0000 0000 000000
2016-03-15 02:15:01,0.18,7.65,0.00,13.62,17.60,22.14,15.13,51.17,1020.56,2067.00,1522.63,1765.46,2007.90,600.00,617.93,50.64,0000 0000 0000 0000 000000
2016-03-15 02:20:02,0.19,7.66,0.00,13.66,17.64,22.16,15.19,51.08,1020.56,2066.99,1521.26,1764.38,2006.61,599.76,617.64,50.69,0000 0000 0000 0000 000000
2016-03-15 02:25:04,0.18,7.67,0.00,13.69,17.68,22.21,15.16,51.05,1020.60,2066.97,1519.85,1763.27,2005.35,599.75,617.64,50.74,0000 0000 0000 0000 000000
2016-03-15 02:30:05,0.12,7.68,0.00,13.73,17.71,22.22,15.20,51.07,1020.57,2066.58,1518.54,1762.22,2004.19,600.05,617.69,50.79,0000 0000 0000 0000 000000
2016-03-15 02:35:06,0.11,7.68,0.00,13.78,17.75,22.25,15.14,51.14,1020.61,2066.13,1517.22,1761.22,2003.05,599.94,617.55,50.84,0000 0000 0000 0000 000000
2016-03-15 02:40:08,0.18,7.69,0.00,13.81,17.78,22.29,15.29,51.17,1020.62,2066.02,1515.84,1760.20,2001.85,600.50,617.97,50.89,0000 0000 0000 0000 000000
2016-03-15 02:45:09,0.19,7.70,0.00,13.86,17.82,22.33,15.16,51.07,1020.58,2066.01,1514.51,1759.20,2000.65,600.10,617.38,50.94,0000 0000 0000 0000 000000
2016-03-15 02:50:11,0.19,7.71,0.00,13.91,17.86,22.37,15.24,51.09,1020.55,2066.00,1513.01,1758.00,1999.47,600.14,617.43,50.99,0000 0000 0000 0000 000000
2016-03-15 02:55:12,0.19,7.72,0.00,13.95,17.90,22.40,15.13,51.06,1020.60,2065.98,1511.64,1756.94,1998.24,599.96,617.19,51.04,0000 0000 0000 0000 000000
2016-03-15 03:00:14,0.18,7.73,0.00,13.99,17.94,22.46,15.20,51.18,1020.59,2065.97,1510.23,1755.86,1997.00,600.25,617.38,51.09,0000 0000 0000 0000 000000
2016-03-15 03:05:15,0.17,7.74,0.00,14.03,17.99,22.51,15.23,51.16,1020.55,2065.71,1508.83,1754.73,1995.73,600.27,617.37,51.14,0000 0000 0000 0000 000000
2016-03-15 03:10:16,0.13,7.75,0.00,14.08,18.03,22.54,15.16,51.18,1020.55,2065.22,1507.50,1753.65,1994.53,600.04,616.98,51.19,0000 0000 0000 0000 000000
2016-03-15 03:15:17,0.17,7.75,0.00,14.13,18.08,22.62,15.23,51.18,1020.54,2065.01,1506.13,1752.61,1993.31,600.12,616.97,51.24,0000 0000 0000 0000 000000
2016-03-15 03:20:18,0.18,7.77,0.00,14.17,18.12,22.63,15.17,51.24,1020.54,2065.00,1504.76,1751.58,1992.12,599.80,616.61,51.30,0000 0000 0000 0000 000000
2016-03-15 03:25:20,0.19,7.77,0.00,14.21,18.17,22.67,15.20,51.21,1020.53,2065.00,1503.52,1750.52,1990.89,600.02,616.70,51.35,0000 0000 0000 0000 000000
2016-03-15 03:30:21,0.18,7.78,0.00,14.27,18.21,22.73,15.13,51.18,1020.53,2064.95,1502.04,1749.41,1989.69,599.44,615.92,51.40,0000 0000 0000 0000 000000
2016-03-15 03:35:22,0.12,7.79,0.00,14.31,18.26,22.77,15.17,51.14,1020.55,2064.66,1500.80,1748.37,1988.50,599.92,616.33,51.45,0000 0000 0000 0000 000000
2016-03-15 03:40:23,0.13,7.80,0.00,14.36,18.30,22.82,15.16,51.06,1020.55,2064.15,1499.57,1747.38,1987.31,600.22,616.65,51.50,0000 0000 0000 0000 000000
2016-03-15 03:45:24,0.16,7.81,0.00,14.43,18.35,22.87,15.16,50.92,1020.54,2064.02,1498.36,1746.34,1986.15,599.97,616.18,51.55,0000 0000 0000 0000 000000
2016-03-15 03:50:26,0.17,7.81,0.00,14.48,18.40,22.97,15.15,51.07,1020.58,2064.00,1497.09,1745.36,1985.00,600.14,616.27,51.60,0000 0000 0000 0000 000000
2016-03-15 03:55:27,0.16,7.82,0.00,14.53,18.44,22.96,15.05,51.02,1020.55,2063.98,1495.91,1744.40,1983.97,599.64,615.59,51.65,0000 0000 0000 0000 000000
2016-03-15 04:00:28,0.17,7.83,0.00,14.60,18.49,22.99,15.09,51.05,1020.53,2063.90,1494.67,1743.47,1982.96,599.98,615.65,51.70,0000 0000 0000 0000 000000
2016-03-15 04:05:30,0.08,7.84,0.00,14.66,18.53,23.10,15.07,51.06,1020.52,2063.27,1493.42,1742.45,1981.86,599.65,615.37,51.75,0000 0000 0000 0000 000000
2016-03-15 04:10:31,0.17,7.85,0.00,14.72,18.58,23.10,15.14,51.02,1020.52,2063.04,1492.10,1741.43,1980.65,600.03,615.54,51.80,0000 0000 0000 0000 000000
2016-03-15 04:15:32,0.18,7.85,0.00,14.77,18.62,23.13,15.09,51.02,1020.52,2063.00,1490.78,1740.41,1979.55,599.83,615.22,51.85,0000 0000 0000 0000 000000
2016-03-15 04:20:34,0.17,7.86,0.00,14.81,18.67,23.15,15.16,51.07,1020.52,2063.00,1489.60,1739.48,1978.48,599.96,615.45,51.90,0000 0000 0000 0000 000000
2016-03-15 04:25:35,0.16,7.87,0.00,14.85,18.72,23.19,15.16,51.08,1020.52,2062.98,1488.46,1738.50,1977.39,600.00,615.30,51.95,0000 0000 0000 0000 000000
2016-03-15 04:30:36,0.09,7.88,0.00,14.90,18.77,23.31,15.08,51.08,1020.52,2062.67,1487.41,1737.63,1976.35,599.98,615.14,52.00,0000 0000 0000 0000 000000
2016-03-15 04:35:38,0.08,7.88,0.00,14.94,18.82,23.31,15.15,51.13,1020.52,2062.07,1486.23,1736.74,1975.30,600.24,615.25,52.05,0000 0000 0000 0000 000000
2016-03-15 04:40:39,0.14,7.89,0.00,14.98,18.87,23.39,15.19,50.92,1020.52,2062.01,1485.19,1735.86,1974.25,600.22,615.20,52.10,0000 0000 0000 0000 000000
2016-03-15 04:45:40,0.15,7.90,0.00,15.01,18.92,23.40,15.23,51.01,1020.52,2062.00,1484.09,1734.96,1973.23,600.30,615.25,52.16,0000 0000 0000 0000 000000
2016-03-15 04:50:42,0.18,7.91,0.00,15.06,18.96,23.46,15.08,50.99,1020.52,2061.98,1482.86,1733.97,1972.14,600.16,614.89,52.21,0000 0000 0000 0000 000000
2016-03-15 04:55:43,0.14,7.91,0.00,15.09,19.00,23.57,15.03,50.88,1020.52,2061.68,1481.57,1732.99,1970.97,600.03,614.79,52.26,0000 0000 0000 0000 000000
2016-03-15 05:00:44,0.11,7.92,0.00,15.13,19.05,23.54,15.08,50.88,1020.52,2061.23,1480.36,1732.03,1969.88,600.09,614.66,52.31,0000 0000 0000 0000 000000
2016-03-15 05:05:46,0.17,7.93,0.00,15.18,19.09,23.58,15.06,50.92,1020.51,2061.03,1478.96,1731.01,1968.74,599.83,614.43,52.36,0000 0000 0000 0000 000000
2016-03-15 05:10:47,0.18,7.94,0.00,15.21,19.13,23.62,15.08,51.02,1020.52,2061.00,1477.69,1730.01,1967.69,599.90,614.40,52.41,0000 0000 0000 0000 000000
2016-03-15 05:15:49,0.25,7.95,0.00,15.23,19.17,23.69,15.07,50.86,1020.52,2061.00,1476.15,1728.83,1966.27,599.98,614.39,52.46,0000 0000 0000 0000 000000
2016-03-15 05:20:50,0.28,7.96,0.00,15.27,19.21,23.71,15.15,51.15,1020.52,2060.98,1474.07,1727.39,1964.52,599.99,614.48,52.51,0000 0000 0000 0000 000000
2016-03-15 05:25:51,0.25,7.98,0.00,15.30,19.26,23.79,15.01,51.03,1020.52,2060.88,1472.08,1725.97,1962.79,599.79,614.08,52.56,0000 0000 0000 0000 000000
2016-03-15 05:30:52,0.18,7.99,0.00,15.33,19.30,23.82,15.11,51.08,1020.52,2060.44,1470.24,1724.54,1961.19,599.96,614.17,52.61,0000 0000 0000 0000 000000
2016-03-15 05:35:54,0.21,8.00,0.00,15.37,19.34,23.85,15.17,51.13,1020.52,2060.06,1468.52,1723.27,1959.70,600.25,614.37,52.66,0000 0000 0000 0000 000000
2016-03-15 05:40:55,0.22,8.01,0.00,15.39,19.38,23.86,15.11,51.08,1020.52,2060.00,1466.82,1721.97,1958.28,600.01,614.17,52.71,0000 0000 0000 0000 000000
2016-03-15 05:45:56,0.25,8.02,0.00,15.42,19.42,23.90,15.06,50.92,1020.52,2060.00,1465.19,1720.66,1956.76,599.99,613.96,52.76,0000 0000 0000 0000 000000
2016-03-15 05:50:57,0.23,8.03,0.00,15.47,19.47,23.96,15.06,50.84,1020.52,2059.96,1463.58,1719.46,1955.38,599.84,613.84,52.81,0000 0000 0000 0000 000000
2016-03-15 05:55:59,0.21,8.04,0.00,15.52,19.51,23.99,15.05,50.77,1020.52,2059.83,1461.87,1718.18,1953.88,599.90,613.85,52.86,0000 0000 0000 0000 000000
2016-03-15 06:01:00,0.14,8.05,0.00,15.54,19.55,24.03,15.07,50.86,1020.52,2059.26,1460.25,1716.89,1952.50,600.07,613.85,52.91,0000 0000 0000 0000 000000
2016-03-15 06:06:01,0.20,8.06,0.00,15.59,19.59,24.07,15.03,50.77,1020.51,2059.05,1458.76,1715.77,1951.19,599.93,613.52,52.96,0000 0000 0000 0000 000000
2016-03-15 06:11:02,0.21,8.07,0.00,15.63,19.64,24.10,14.98,50.83,1020.51,2059.00,1457.36,1714.56,1949.81,599.80,613.41,53.01,0000 0000 0000 0000 000000
2016-03-15 06:16:04,0.22,8.08,0.00,15.67,19.68,24.10,15.02,50.99,1020.50,2059.00,1455.80,1713.44,1948.52,600.04,613.44,53.06,0000 0000 0000 0000 000000
2016-03-15 06:21:05,0.20,8.10,0.00,15.71,19.72,24.17,15.02,50.87,1020.51,2058.96,1454.20,1712.27,1947.09,599.90,613.25,53.12,0000 0000 0000 0000 000000
2016-03-15 06:26:06,0.18,8.11,0.00,15.75,19.76,24.22,15.11,50.87,1020.52,2058.70,1452.66,1711.08,1945.73,600.07,613.47,53.17,0000 0000 0000 0000 000000
2016-03-15 06:31:08,0.13,8.11,0.00,15.77,19.80,24.24,14.99,50.73,1020.52,2058.17,1451.32,1709.95,1944.53,599.82,613.20,53.22,0000 0000 0000 0000 000000
2016-03-15 06:36:09,0.21,8.12,0.00,15.81,19.83,24.29,15.05,50.77,1020.52,2058.03,1449.76,1708.83,1943.28,600.08,613.28,53.27,0000 0000 0000 0000 000000
2016-03-15 06:41:11,0.21,8.13,0.00,15.85,19.86,24.30,15.14,50.74,1020.51,2058.00,1448.30,1707.71,1941.87,600.39,613.46,53.32,0000 0000 0000 0000 000000
2016-03-15 06:46:12,0.23,8.14,0.00,15.89,19.89,24.34,15.04,50.77,1020.49,2058.00,1446.78,1706.60,1940.64,600.16,613.19,53.37,0000 0000 0000 0000 000000
2016-03-15 06:51:13,0.20,8.15,0.00,15.91,19.93,24.37,15.06,50.78,1020.48,2057.99,1445.27,1705.45,1939.37,600.11,612.98,53.42,0000 0000 0000 0000 000000
2016-03-15 06:56:15,0.22,8.17,0.00,15.93,19.95,24.39,15.11,50.72,1020.52,2057.95,1443.66,1704.28,1937.97,600.10,613.11,53.47,0000 0000 0000 0000 000000
2016-03-15 07:01:16,0.23,8.18,0.00,15.98,19.98,24.41,15.07,50.65,1020.52,2057.94,1442.03,1703.06,1936.63,600.14,613.04,53.52,0000 0000 0000 0000 000000
2016-03-15 07:06:17,0.19,8.19,0.00,16.00,20.00,24.44,15.03,50.61,1020.52,2057.61,1440.36,1701.78,1935.23,599.83,612.70,53.57,0000 0000 0000 0000 000000
2016-03-15 07:11:19,0.20,8.20,0.00,16.04,20.03,24.46,15.09,50.53,1020.52,2057.21,1438.58,1700.57,1933.72,600.09,612.91,53.62,0000 0000 0000 0000 000000
2016-03-15 07:16:20,0.25,8.21,0.00,16.07,20.05,24.47,14.98,50.52,1020.52,2057.08,1436.71,1699.14,1932.17,599.88,612.55,53.67,0000 0000 0000 0000 000000
2016-03-15 07:21:22,0.27,8.22,0.00,16.09,20.07,24.50,15.01,50.58,1020.52,2057.02,1434.85,1697.78,1930.60,599.76,612.29,53.72,0000 0000 0000 0000 000000
2016-03-15 07:26:23,0.24,8.24,0.00,16.13,20.09,24.49,15.02,50.48,1020.52,2057.01,1433.06,1696.53,1929.17,600.19,612.74,53.77,0000 0000 0000 0000 000000
2016-03-15 07:31:25,0.25,8.25,0.00,16.15,20.10,24.54,15.12,50.47,1020.52,2057.00,1431.28,1695.20,1927.65,600.07,612.64,53.82,0000 0000 0000 0000 000000
2016-03-15 07:36:26,0.27,8.27,0.00,16.18,20.12,24.57,15.07,50.33,1020.52,2057.00,1429.46,1693.80,1926.14,599.85,612.35,53.87,0000 0000 0000 0000 000000
2016-03-15 07:41:27,0.26,8.28,0.00,16.21,20.13,24.59,15.01,50.33,1020.52,2056.99,1427.68,1692.52,1924.66,599.99,612.35,53.92,0000 0000 0000 0000 000000
2016-03-15 07:46:29,0.23,8.29,0.00,16.24,20.14,24.58,15.02,50.36,1020.52,2056.98,1425.93,1691.30,1923.21,600.12,612.45,53.98,0000 0000 0000 0000 000000
2016-03-15 07:51:30,0.27,8.30,0.00,16.25,20.16,24.57,14.97,50.20,1020.53,2056.97,1424.17,1689.92,1921.73,599.89,612.24,54.03,0000 0000 0000 0000 000000
2016-03-15 07:56:31,0.26,8.32,0.00,16.27,20.17,24.60,15.00,50.13,1020.55,2056.97,1422.31,1688.60,1920.25,600.10,612.32,54.08,0000 0000 0000 0000 000000
2016-03-15 08:01:32,0.25,8.33,0.00,16.29,20.17,24.63,14.98,50.09,1020.54,2056.87,1420.40,1687.23,1918.73,599.74,611.96,54.13,0000 0000 0000 0000 000000
2016-03-15 08:06:33,0.32,8.34,0.00,16.31,20.19,24.63,14.99,50.10,1020.53,2056.72,1418.22,1685.68,1917.03,600.01,612.23,54.18,0000 0000 0000 0000 000000
2016-03-15 08:11:35,0.30,8.36,0.00,16.32,20.19,24.64,15.05,50.11,1020.52,2056.75,1416.03,1684.07,1915.27,599.82,611.95,54.23,0000 0000 0000 0000 000000
2016-03-15 08:16:36,0.28,8.38,0.00,16.35,20.20,24.64,14.98,50.14,1020.52,2056.43,1413.90,1682.49,1913.45,599.84,611.83,54.28,0000 0000 0000 0000 000000
2016-03-15 08:21:37,0.32,8.39,0.00,16.38,20.22,24.66,15.04,50.21,1020.52,2056.39,1411.81,1680.90,1911.69,600.20,612.22,54.33,0000 0000 0000 0000 000000
2016-03-15 08:26:39,0.28,8.41,0.00,16.41,20.23,24.67,14.99,49.90,1020.52,2056.18,1409.50,1679.23,1909.73,600.02,611.97,54.38,0000 0000 0000 0000 000000
2016-03-15 08:31:40,0.31,8.42,0.00,16.44,20.24,24.71,15.03,50.14,1020.54,2056.06,1407.44,1677.59,1907.87,600.13,612.00,54.43,0000 0000 0000 0000 000000
2016-03-15 08:36:41,0.30,8.44,0.00,16.56,20.26,24.72,14.97,50.13,1020.54,2056.02,1405.37,1676.01,1906.12,599.96,611.57,54.48,0000 0000 0000 0000 000000
2016-03-15 08:41:43,0.33,8.46,0.00,16.72,20.28,24.75,14.92,49.85,1020.53,2056.01,1403.17,1674.36,1904.27,599.58,610.90,54.53,0000 0000 0000 0000 000000
2016-03-15 08:46:44,0.36,8.47,0.00,16.74,20.29,24.77,14.96,49.81,1020.53,2056.00,1400.79,1672.60,1902.27,599.94,611.04,54.58,0000 0000 0000 0000 000000
2016-03-15 08:51:45,0.36,8.49,0.00,16.68,20.31,24.80,14.98,49.73,1020.53,2056.00,1398.41,1670.82,1900.28,600.02,611.39,54.63,0000 0000 0000 0000 000000
2016-03-15 08:56:47,0.39,8.51,0.00,16.62,20.32,24.87,14.95,49.90,1020.53,2056.00,1395.91,1668.96,1898.14,599.94,611.43,54.68,0000 0000 0000 0000 000000
2016-03-15 09:01:48,0.52,8.53,0.00,16.57,20.34,24.88,14.95,50.09,1020.53,2055.99,1392.56,1666.55,1895.51,599.88,611.47,54.73,0000 0000 0000 0000 000000
2016-03-15 09:06:49,0.57,8.56,0.00,16.54,20.34,24.90,15.01,50.04,1020.54,2055.98,1388.75,1663.84,1892.43,600.25,611.87,54.78,0000 0000 0000 0000 000000
2016-03-15 09:11:51,0.66,8.59,0.00,16.51,20.35,24.88,15.08,50.20,1020.55,2055.98,1384.30,1660.72,1888.91,600.06,611.87,54.84,0000 0000 0000 0000 000000
2016-03-15 09:16:52,0.68,8.63,0.00,16.48,20.36,24.91,15.07,50.21,1020.53,2055.97,1379.88,1657.53,1885.33,600.06,611.91,54.89,0000 0000 0000 0000 000000
2016-03-15 09:21:53,0.54,8.66,0.00,16.44,20.37,24.90,15.03,50.03,1020.53,2055.98,1376.04,1654.68,1882.14,599.81,611.69,54.94,0000 0000 0000 0000 000000
2016-03-15 09:26:55,0.51,8.68,0.10,16.41,20.37,24.90,15.04,50.05,1020.53,2055.98,1372.60,1652.27,1879.44,600.11,612.09,54.99,0000 0000 0000 0000 000000
2016-03-15 09:31:56,0.56,8.71,1.00,16.38,20.37,24.92,15.01,49.88,1020.54,2055.98,1368.92,1649.63,1876.55,599.95,612.10,55.04,0000 0000 0000 0000 000000
2016-03-15 09:36:57,0.58,8.74,1.00,16.34,20.37,24.90,14.98,50.08,1020.53,2055.96,1365.19,1646.97,1873.53,600.04,612.14,55.09,0000 0000 0000 0000 000000
2016-03-15 09:41:59,0.56,8.77,1.00,16.32,20.37,24.90,14.96,49.98,1020.52,2055.97,1361.52,1644.31,1870.62,600.10,612.11,55.14,0000 0000 0000 0000 000000
2016-03-15 09:47:00,0.54,8.80,1.00,16.32,20.37,24.92,15.01,50.12,1020.52,2055.98,1357.86,1641.69,1867.73,600.00,612.00,55.19,0000 0000 0000 0000 000000
2016-03-15 09:52:01,0.58,8.83,1.00,16.28,20.36,24.90,15.00,49.86,1020.52,2055.99,1354.21,1639.09,1864.81,599.97,612.08,55.24,0000 0000 0000 0000 000000
2016-03-15 09:57:02,0.51,8.85,1.00,16.24,20.34,24.88,15.03,50.23,1020.52,2055.97,1350.67,1636.46,1861.86,600.29,612.63,55.29,0000 0000 0000 0000 000000
2016-03-15 10:02:04,0.44,8.88,1.00,16.22,20.34,24.83,15.00,50.08,1020.52,2055.98,1347.78,1634.38,1859.56,599.67,612.08,55.34,0000 0000 0000 0000 000000
2016-03-15 10:07:05,0.44,8.90,1.00,16.18,20.34,24.81,15.07,50.04,1020.52,2055.97,1344.92,1632.32,1857.25,599.92,612.29,55.39,0000 0000 0000 0000 000000
2016-03-15 10:12:06,0.58,8.93,1.00,16.18,20.32,24.79,15.05,49.95,1020.52,2055.98,1341.53,1629.70,1854.48,600.22,612.73,55.44,0000 0000 0000 0000 000000
2016-03-15 10:17:07,0.53,8.96,1.00,16.16,20.32,24.78,15.02,49.93,1020.52,2055.98,1338.02,1627.15,1851.66,599.61,612.08,55.49,0000 0000 0000 0000 000000
2016-03-15 10:22:08,0.55,8.98,1.00,16.14,20.30,24.76,14.96,49.84,1020.51,2055.99,1334.53,1624.60,1848.90,599.50,611.98,55.54,0000 0000 0000 0000 000000
2016-03-15 10:27:09,0.55,9.01,1.00,16.09,20.29,24.71,14.99,49.98,1020.45,2055.98,1331.04,1622.11,1846.09,599.85,612.36,55.59,0000 0000 0000 0000 000000
2016-03-15 10:32:11,0.52,9.04,1.00,16.09,20.27,24.71,14.98,50.08,1020.32,2055.98,1327.56,1619.65,1843.39,599.77,612.17,55.64,0000 0000 0000 0000 000000
2016-03-15 10:37:12,0.50,9.06,1.00,16.07,20.26,24.68,15.05,50.24,1020.19,2055.99,1324.35,1617.34,1840.82,600.11,612.58,55.69,0000 0000 0000 0000 000000
2016-03-15 10:42:13,0.50,9.09,1.00,16.04,20.24,24.65,15.07,50.13,1020.12,2055.99,1321.17,1615.06,1838.27,599.97,612.57,55.74,0000 0000 0000 0000 000000
2016-03-15 10:47:14,0.49,9.11,1.00,16.03,20.23,24.60,15.11,50.09,1020.06,2055.99,1318.20,1612.77,1835.64,599.93,612.44,55.79,0000 0000 0000 0000 000000
2016-03-15 10:52:15,0.46,9.14,1.00,16.01,20.22,24.63,15.08,50.21,1020.04,2055.99,1315.27,1610.66,1833.33,600.38,612.77,55.85,0000 0000 0000 0000 000000
2016-03-15 10:57:17,0.45,9.16,0.83,15.98,20.19,24.59,15.05,50.29,1020.05,2055.99,1312.42,1608.62,1831.11,600.13,612.70,55.90,0000 0000 0000 0000 000000
2016-03-15 11:02:18,0.46,9.18,0.00,15.94,20.19,24.55,14.94,50.10,1020.04,2056.00,1309.50,1606.54,1828.80,599.26,611.94,55.95,0000 0000 0000 0000 000000
2016-03-15 11:07:19,0.44,9.21,0.00,15.90,20.17,24.53,15.06,50.35,1020.04,2056.02,1306.78,1604.55,1826.57,600.08,612.76,56.00,0000 0000 0000 0000 000000
2016-03-15 11:12:21,0.42,9.23,0.00,15.91,20.15,24.53,15.07,50.06,1020.04,2056.01,1304.21,1602.62,1824.38,600.17,612.91,56.05,0000 0000 0000 0000 000000
2016-03-15 11:17:22,0.46,9.25,0.00,15.88,20.14,24.49,15.09,50.09,1020.03,2056.03,1301.43,1600.63,1822.12,599.96,612.68,56.10,0000 0000 0000 0000 000000
2016-03-15 11:22:23,0.40,9.27,0.00,15.87,20.12,24.49,15.00,50.04,1020.01,2056.11,1298.93,1598.89,1820.06,599.31,612.18,56.15,0000 0000 0000 0000 000000
2016-03-15 11:27:25,0.39,9.29,0.00,15.85,20.10,24.46,15.04,50.17,1020.01,2056.25,1296.55,1597.36,1818.23,600.02,612.91,56.20,0000 0000 0000 0000 000000
2016-03-15 11:32:26,0.40,9.31,0.00,15.83,20.08,24.48,14.99,50.24,1019.97,2056.50,1294.25,1595.73,1816.43,599.42,612.16,56.25,0000 0000 0000 0000 000000
2016-03-15 11:37:28,0.37,9.34,0.00,15.82,20.06,24.43,15.05,50.19,1019.92,2056.67,1292.08,1594.23,1814.75,599.95,612.80,56.30,0000 0000 0000 0000 000000
2016-03-15 11:42:29,0.38,9.35,0.00,15.78,20.03,24.37,15.00,50.20,1019.80,2056.89,1289.86,1592.66,1813.03,599.81,612.54,56.35,0000 0000 0000 0000 000000
2016-03-15 11:47:30,0.35,9.37,0.00,15.75,20.02,24.36,14.96,50.47,1019.77,2056.95,1287.58,1591.13,1811.29,599.90,612.67,56.40,0000 0000 0000 0000 000000
2016-03-15 11:52:32,0.39,9.39,0.00,15.73,19.99,24.35,15.00,50.35,1019.57,2056.98,1285.25,1589.52,1809.51,599.75,612.46,56.45,0000 0000 0000 0000 000000
2016-03-15 11:57:33,0.40,9.41,0.00,15.72,19.97,24.34,15.04,50.23,1019.60,2056.99,1282.89,1587.80,1807.64,599.78,612.52,56.50,0000 0000 0000 0000 000000
2016-03-15 12:02:34,0.40,9.43,0.00,15.71,19.95,24.27,15.12,50.41,1019.57,2056.99,1280.38,1586.08,1805.69,599.90,612.75,56.55,0000 0000 0000 0000 000000
2016-03-15 12:07:36,0.38,9.45,0.00,15.65,19.93,24.29,15.03,50.12,1019.55,2056.99,1278.10,1584.37,1803.66,599.79,612.68,56.60,0000 0000 0000 0000 000000
2016-03-15 12:12:37,0.40,9.47,0.00,15.61,19.91,24.27,15.09,50.05,1019.55,2056.99,1275.76,1582.62,1801.71,599.75,612.80,56.65,0000 0000 0000 0000 000000
2016-03-15 12:17:39,0.30,9.49,0.00,15.60,19.89,24.23,15.01,50.04,1019.55,2057.01,1273.84,1581.18,1800.06,599.44,612.36,56.70,0000 0000 0000 0000 000000
2016-03-15 12:22:40,0.32,9.51,0.00,15.56,19.87,24.23,15.13,50.15,1019.55,2057.01,1271.99,1579.81,1798.55,600.39,613.63,56.76,0000 0000 0000 0000 000000
2016-03-15 12:27:41,0.36,9.52,0.00,15.53,19.85,24.15,15.09,50.25,1019.55,2057.04,1269.69,1578.33,1796.84,599.92,613.11,56.81,0000 0000 0000 0000 000000
2016-03-15 12:32:42,0.37,9.54,0.00,15.51,19.83,24.14,15.06,50.28,1019.55,2057.06,1267.52,1576.73,1795.15,599.96,613.26,56.86,0000 0000 0000 0000 000000
2016-03-15 12:37:44,0.40,9.56,0.00,15.47,19.81,24.09,15.05,50.79,1019.55,2057.25,1265.18,1575.18,1793.44,599.91,613.26,56.91,0000 0000 0000 0000 000000
2016-03-15 12:42:45,0.44,9.58,0.00,15.45,19.78,24.12,15.06,50.47,1019.54,2057.58,1263.02,1573.59,1791.66,599.87,613.07,56.96,0000 0000 0000 0000 000000
2016-03-15 12:47:47,0.32,9.60,0.00,15.42,19.76,24.08,15.06,50.44,1019.50,2057.73,1261.00,1572.16,1790.10,600.00,613.44,57.01,0000 0000 0000 0000 000000
2016-03-15 12:52:48,0.39,9.62,0.00,15.39,19.74,24.06,15.14,50.55,1019.49,2057.89,1258.96,1570.72,1788.52,600.20,613.74,57.06,0000 0000 0000 0000 000000
2016-03-15 12:57:49,0.37,9.64,0.00,15.37,19.71,24.02,15.12,50.25,1019.45,2057.97,1256.76,1569.17,1786.71,600.39,613.87,57.11,0000 0000 0000 0000 000000